Location: Unspecified
(0.0000°N, 0.0000°E)
Time: 21:33:32
(UTC+00:00)

SR - Pass Details

Date: 19 June 2025
Orbit: 572 x 853 km, 66.7° (Epoch: 13 July)

Event Time Altitude Azimuth Distance (km) Brightness Sun altitude
Rises 14:09:29 0° 174° (S) 3,274 ? 51.1°
Reaches altitude 10° 14:12:22 10° 159° (SSE) 2,385 ? 50.5°
Maximum altitude 14:16:36 22° 109° (ESE) 1,720 ? 49.7°
Drops below altitude 10° 14:20:57 10° 59° (ENE) 2,460 ? 48.8°
Sets 14:23:57 0° 45° (NE) 3,404 ? 48.2°
